OPS 4682 DEB, 38420

Orbit data source: Space-Track

OPS 4682 DEB, 38420 is space debris in LEO originally from a launch on Sat, 03 Apr 1965 UTC launched from the Air Force Western Test Range (AFWTR). Debris objects in space refer to the collection of defunct objects orbiting the Earth. Examples of debris include non-operational satellites, rocket bodies, and fragments generated from explosions, collisions, or faulty payload assembly.

Loading next visibility...
Identifier
38420, 1965-027DZ
Orbit
LEO
Country
Flag of USUS
Related business
Manufacturer
Unknown
Mission
Spacecraft
Bus & Motor
Unknown
Mass
Unknown
Launch date (UTC)
1965-04-03 (61 years ago)
Launch vehicle
Unknown
Launch site
Air Force Western Test Range (AFWTR)
Object type
Payload
Rocket body
Debris
Shape & HBR
Unknown shape, 0.1 m
Radar Cross Section
Small (<0.1 m²)

Expand to show TLE details & history
Last TLE update: 1 day ago

TLE from 1 day ago
0 OPS 4682 DEB
1 38420U 65027DZ  26137.62989097  .00000903  00000-0  29722-2 0  9992
2 38420  90.2483  10.2631 0029943 354.6989   5.3812 12.99981195550417
Epoch: 2026-05-17T15:07Z
TLE epoch observation values (Epoch: 2026-05-17T15:07:02.579Z)
Latitude
-0.00002°
Longitude
-91.8274°
Altitude
1,242.264 km
Speed
7.245 km/s
True Right ascension
00h 41m 03s
True Declination
0° 00' 00"
Sunlit
Object was in daylight at epoch
Visualization orbit readout
Latitude
Unknown
Longitude
Unknown
Altitude
Unknown
Speed
Unknown
Apparent Right ascension
Unknown
Apparent Declination
Unknown
Sunlit
N/A
Visualization observer readout
Local Sidereal Time
08:57:35
Azimuth
Unknown
Elevation
Unknown
Doppler factor
Unknown
Orbital elements
Apogee altitude
1,282.156 km
Perigee altitude
1,236.419 km
Semi-major axis
7,637.424 km
Eccentricity
0.00299
Inclination
90.2483°
RAAN
10.2631°
Arg. of periapsis
354.6989°
True anomaly
5.4135°
Mean anomaly
5.3812°
Eccentric anomaly
5.39734°
Mean motion
3.25179 °/min
Orbital period
110.71 mins
BSTAR
0.0029722
Loading maneuver chart data...
Computing Atmospheric mass density...
Loading historical data...
Loading historical data...
Loading historical data...
Loading historical data...
Loading historical data...
Loading historical data...
Loading historical data...

Documentation

Showing up to 5 results
|